Time,TemperatureF,DewpointF,PressureIn,WindDirection,WindDirectionDegrees,WindSpeedMPH,WindSpeedGustMPH,Humidity,HourlyPrecipIn,Conditions,Clouds,dailyrainin,SoftwareType,DateUTC
2013-04-19 00:01:00,51.4,45.1,30.09,WSW,242,0.0,3.0,79,0.00,,,0.00,WeatherCatV1.10B1784,2013-04-19 04:01:00,
2013-04-19 00:06:00,51.4,45.1,30.10,SSE,154,1.0,2.0,79,0.00,,,0.00,WeatherCatV1.10B1784,2013-04-19 04:06:00,
2013-04-19 00:11:00,51.4,45.1,30.10,WSW,237,5.0,5.0,79,0.00,,,0.00,WeatherCatV1.10B1784,2013-04-19 04:11:00,
2013-04-19 00:14:00,51.4,45.1,30.10,WSW,247,3.0,7.0,79,0.00,,,0.00,WeatherCatV1.10B1784,2013-04-19 04:14:00,
2013-04-19 00:19:00,51.4,45.4,30.09,SE,136,0.0,0.0,80,0.00,,,0.00,WeatherCatV1.10B1784,2013-04-19 04:19:00,
2013-04-19 00:24:00,51.4,45.4,30.09,SW,235,4.0,4.0,80,0.00,,,0.00,WeatherCatV1.10B1784,2013-04-19 04:24:00,
2013-04-19 00:29:00,51.4,45.4,30.09,SE,140,0.0,6.0,80,0.00,,,0.00,WeatherCatV1.10B1784,2013-04-19 04:29:00,
2013-04-19 00:34:00,51.5,45.9,30.09,SE,140,0.0,2.0,81,0.00,,,0.00,WeatherCatV1.10B1784,2013-04-19 04:34:00,
2013-04-19 00:39:00,51.5,45.9,30.09,SE,140,0.0,3.0,81,0.00,,,0.00,WeatherCatV1.10B1784,2013-04-19 04:39:00,
2013-04-19 00:44:00,51.5,45.9,30.09,SE,140,0.0,1.0,81,0.00,,,0.00,WeatherCatV1.10B1784,2013-04-19 04:44:00,
2013-04-19 00:49:00,51.5,45.9,30.08,SSE,159,3.0,4.0,81,0.00,,,0.00,WeatherCatV1.10B1784,2013-04-19 04:49:00,
2013-04-19 00:54:00,51.5,45.9,30.08,SSE,167,0.0,2.0,81,0.00,,,0.00,WeatherCatV1.10B1784,2013-04-19 04:54:00,
2013-04-19 00:59:00,51.5,46.2,30.08,SE,141,1.0,2.0,82,0.00,,,0.00,WeatherCatV1.10B1784,2013-04-19 04:59:00,
2013-04-19 01:04:00,51.5,46.2,30.08,South,176,0.0,7.0,82,0.00,,,0.00,WeatherCatV1.10B1784,2013-04-19 05:04:00,
2013-04-19 01:09:00,51.5,46.2,30.08,South,181,0.0,5.0,82,0.00,,,0.00,WeatherCatV1.10B1784,2013-04-19 05:09:00,
2013-04-19 01:14:00,51.5,46.2,30.08,SSE,156,0.0,3.0,82,0.00,,,0.00,WeatherCatV1.10B1784,2013-04-19 05:14:00,
2013-04-19 01:19:00,51.5,46.5,30.07,SE,141,0.0,3.0,83,0.00,,,0.00,WeatherCatV1.10B1784,2013-04-19 05:19:00,
2013-04-19 01:24:00,51.5,46.5,30.07,SSE,161,2.0,5.0,83,0.00,,,0.00,WeatherCatV1.10B1784,2013-04-19 05:24:00,
2013-04-19 01:29:00,51.5,46.5,30.06,SSE,157,0.0,7.0,83,0.00,,,0.00,WeatherCatV1.10B1784,2013-04-19 05:29:00,
2013-04-19 01:34:00,51.5,46.8,30.06,SSE,161,6.0,9.0,84,0.00,,,0.00,WeatherCatV1.10B1784,2013-04-19 05:34:00,
2013-04-19 01:39:00,51.5,46.8,30.05,SSW,202,0.0,5.0,84,0.00,,,0.00,WeatherCatV1.10B1784,2013-04-19 05:39:00,
2013-04-19 01:44:00,51.5,46.8,30.05,SE,131,0.0,5.0,84,0.00,,,0.00,WeatherCatV1.10B1784,2013-04-19 05:44:00,
2013-04-19 01:49:00,51.5,47.1,30.04,South,175,1.0,4.0,85,0.00,,,0.00,WeatherCatV1.10B1784,2013-04-19 05:49:00,
2013-04-19 01:54:00,51.5,47.1,30.04,WSW,257,0.0,4.0,85,0.00,,,0.00,WeatherCatV1.10B1784,2013-04-19 05:54:00,
2013-04-19 01:59:00,51.5,47.5,30.04,South,177,3.0,7.0,86,0.00,,,0.00,WeatherCatV1.10B1784,2013-04-19 05:59:00,
2013-04-19 02:04:00,51.5,47.5,30.03,SE,138,3.0,6.0,86,0.00,,,0.00,WeatherCatV1.10B1784,2013-04-19 06:04:00,
2013-04-19 02:09:00,51.5,47.8,30.03,South,174,3.0,5.0,87,0.00,,,0.00,WeatherCatV1.10B1784,2013-04-19 06:09:00,
2013-04-19 02:14:00,51.5,47.8,30.02,SE,144,3.0,9.0,87,0.00,,,0.00,WeatherCatV1.10B1784,2013-04-19 06:14:00,
2013-04-19 02:19:00,51.5,48.1,30.02,South,191,7.0,9.0,88,0.00,,,0.00,WeatherCatV1.10B1784,2013-04-19 06:19:00,
2013-04-19 02:24:00,51.5,48.1,30.02,South,174,10.0,10.0,88,0.00,,,0.00,WeatherCatV1.10B1784,2013-04-19 06:24:00,
2013-04-19 02:29:00,51.5,48.1,30.01,ESE,121,3.0,6.0,88,0.00,,,0.00,WeatherCatV1.10B1784,2013-04-19 06:29:00,
2013-04-19 02:34:00,51.5,48.4,30.01,SSE,161,2.0,5.0,89,0.00,,,0.00,WeatherCatV1.10B1784,2013-04-19 06:34:00,
2013-04-19 02:39:00,51.5,48.4,30.01,South,177,5.0,7.0,89,0.00,,,0.00,WeatherCatV1.10B1784,2013-04-19 06:39:00,
2013-04-19 02:44:00,51.5,48.7,30.00,SSE,159,5.0,9.0,90,0.00,,,0.00,WeatherCatV1.10B1784,2013-04-19 06:44:00,
2013-04-19 02:49:00,51.5,48.7,30.01,SSE,159,1.0,3.0,90,0.00,,,0.00,WeatherCatV1.10B1784,2013-04-19 06:49:00,
2013-04-19 02:54:00,51.5,48.7,30.01,SSE,148,4.0,4.0,90,0.00,,,0.00,WeatherCatV1.10B1784,2013-04-19 06:54:00,
2013-04-19 02:59:00,51.6,49.1,30.01,SE,127,4.0,7.0,91,0.00,,,0.00,WeatherCatV1.10B1784,2013-04-19 06:59:00,
2013-04-19 03:04:00,51.5,49.0,30.01,SSE,157,0.0,2.0,91,0.00,,,0.00,WeatherCatV1.10B1784,2013-04-19 07:04:00,
2013-04-19 03:09:00,51.6,49.1,30.01,West,275,3.0,4.0,91,0.00,,,0.00,WeatherCatV1.10B1784,2013-04-19 07:09:00,
2013-04-19 03:14:00,51.5,49.3,30.01,SW,235,2.0,4.0,92,0.00,,,0.00,WeatherCatV1.10B1784,2013-04-19 07:14:00,
2013-04-19 03:19:00,51.5,49.3,30.00,SSE,155,2.0,4.0,92,0.00,,,0.00,WeatherCatV1.10B1784,2013-04-19 07:19:00,
2013-04-19 03:24:00,51.5,49.3,30.00,SSE,155,0.0,1.0,92,0.00,,,0.00,WeatherCatV1.10B1784,2013-04-19 07:24:00,
2013-04-19 03:29:00,51.5,49.3,30.00,SSE,155,0.0,0.0,92,0.00,,,0.00,WeatherCatV1.10B1784,2013-04-19 07:29:00,
2013-04-19 03:34:00,51.5,49.3,30.00,WSW,243,0.0,1.0,92,0.00,,,0.00,WeatherCatV1.10B1784,2013-04-19 07:34:00,
2013-04-19 03:39:00,51.5,49.5,30.00,WSW,243,0.0,1.0,93,0.00,,,0.00,WeatherCatV1.10B1784,2013-04-19 07:39:00,
2013-04-19 03:44:00,51.5,49.5,30.00,WSW,243,0.0,0.0,93,0.00,,,0.00,WeatherCatV1.10B1784,2013-04-19 07:44:00,
2013-04-19 03:49:00,51.6,49.6,30.00,WSW,243,0.0,0.0,93,0.00,,,0.00,WeatherCatV1.10B1784,2013-04-19 07:49:00,
2013-04-19 03:54:00,51.6,49.6,30.00,WSW,243,0.0,0.0,93,0.00,,,0.00,WeatherCatV1.10B1784,2013-04-19 07:54:00,
2013-04-19 03:59:00,51.6,49.6,30.00,WSW,243,2.0,2.0,93,0.00,,,0.00,WeatherCatV1.10B1784,2013-04-19 07:59:00,
2013-04-19 04:04:00,51.6,49.6,30.00,WSW,243,0.0,0.0,93,0.00,,,0.00,WeatherCatV1.10B1784,2013-04-19 08:04:00,
2013-04-19 04:09:00,51.7,49.7,30.00,WSW,243,0.0,1.0,93,0.00,,,0.00,WeatherCatV1.10B1784,2013-04-19 08:09:00,
2013-04-19 04:14:00,51.7,49.7,30.00,WSW,242,0.0,0.0,93,0.00,,,0.00,WeatherCatV1.10B1784,2013-04-19 08:14:00,
2013-04-19 04:19:00,51.7,49.7,29.99,WSW,242,0.0,1.0,93,0.00,,,0.00,WeatherCatV1.10B1784,2013-04-19 08:19:00,
2013-04-19 04:24:00,51.7,49.7,29.99,WSW,242,0.0,0.0,93,0.00,,,0.00,WeatherCatV1.10B1784,2013-04-19 08:24:00,
2013-04-19 04:29:00,51.7,50.0,29.99,WSW,242,0.0,1.0,94,0.00,,,0.00,WeatherCatV1.10B1784,2013-04-19 08:29:00,
2013-04-19 04:34:00,51.7,50.0,29.99,WSW,242,0.0,3.0,94,0.00,,,0.00,WeatherCatV1.10B1784,2013-04-19 08:34:00,
2013-04-19 04:39:00,51.7,50.0,29.98,WSW,242,0.0,2.0,94,0.00,,,0.00,WeatherCatV1.10B1784,2013-04-19 08:39:00,
2013-04-19 04:44:00,51.8,50.1,29.98,WSW,242,0.0,1.0,94,0.00,,,0.00,WeatherCatV1.10B1784,2013-04-19 08:44:00,
2013-04-19 04:49:00,51.8,50.1,29.98,WSW,242,1.0,2.0,94,0.00,,,0.00,WeatherCatV1.10B1784,2013-04-19 08:49:00,
2013-04-19 04:54:00,51.8,50.1,29.98,WSW,242,0.0,1.0,94,0.00,,,0.00,WeatherCatV1.10B1784,2013-04-19 08:54:00,
2013-04-19 04:59:00,51.9,50.2,29.98,WSW,242,0.0,1.0,94,0.00,,,0.00,WeatherCatV1.10B1784,2013-04-19 08:59:00,
2013-04-19 05:04:00,51.9,50.2,29.97,WSW,242,0.0,1.0,94,0.00,,,0.00,WeatherCatV1.10B1784,2013-04-19 09:04:00,
2013-04-19 05:09:00,51.9,50.2,29.97,WSW,242,0.0,0.0,94,0.00,,,0.00,WeatherCatV1.10B1784,2013-04-19 09:09:00,
2013-04-19 05:14:00,52.0,50.3,29.96,WSW,242,0.0,1.0,94,0.00,,,0.00,WeatherCatV1.10B1784,2013-04-19 09:14:00,
2013-04-19 05:19:00,52.1,50.4,29.95,SSE,160,2.0,4.0,94,0.00,,,0.00,WeatherCatV1.10B1784,2013-04-19 09:19:00,
2013-04-19 05:24:00,52.1,50.4,29.95,SSE,160,0.0,0.0,94,0.00,,,0.00,WeatherCatV1.10B1784,2013-04-19 09:24:00,
2013-04-19 05:29:00,52.2,50.5,29.94,SE,133,2.0,2.0,94,0.00,,,0.00,WeatherCatV1.10B1784,2013-04-19 09:29:00,
2013-04-19 05:34:00,52.4,51.0,29.94,SE,134,1.0,4.0,95,0.00,,,0.00,WeatherCatV1.10B1784,2013-04-19 09:34:00,
2013-04-19 05:39:00,52.7,51.3,29.94,SE,134,3.0,4.0,95,0.00,,,0.00,WeatherCatV1.10B1784,2013-04-19 09:39:00,
2013-04-19 05:44:00,52.8,51.4,29.94,SSE,156,2.0,5.0,95,0.00,,,0.00,WeatherCatV1.10B1784,2013-04-19 09:44:00,
2013-04-19 05:49:00,53.1,51.7,29.94,ESE,114,4.0,5.0,95,0.00,,,0.00,WeatherCatV1.10B1784,2013-04-19 09:49:00,
2013-04-19 05:54:00,53.2,51.8,29.95,SE,125,1.0,3.0,95,0.00,,,0.00,WeatherCatV1.10B1784,2013-04-19 09:54:00,
2013-04-19 05:59:00,53.3,51.9,29.95,SE,137,4.0,4.0,95,0.00,,,0.00,WeatherCatV1.10B1784,2013-04-19 09:59:00,
2013-04-19 06:04:00,53.6,52.2,29.95,South,171,4.0,8.0,95,0.00,,,0.00,WeatherCatV1.10B1784,2013-04-19 10:04:00,
2013-04-19 06:09:00,53.9,52.5,29.95,SSE,159,1.0,7.0,95,0.00,,,0.00,WeatherCatV1.10B1784,2013-04-19 10:09:00,
2013-04-19 06:14:00,54.1,52.7,29.95,SSE,153,0.0,2.0,95,0.00,,,0.00,WeatherCatV1.10B1784,2013-04-19 10:14:00,
2013-04-19 06:19:00,54.4,53.0,29.95,SSE,161,3.0,7.0,95,0.00,,,0.00,WeatherCatV1.10B1784,2013-04-19 10:19:00,
2013-04-19 06:24:00,54.4,53.0,29.95,SE,146,3.0,7.0,95,0.00,,,0.00,WeatherCatV1.10B1784,2013-04-19 10:24:00,
2013-04-19 06:29:00,54.7,53.3,29.94,SE,145,3.0,5.0,95,0.00,,,0.00,WeatherCatV1.10B1784,2013-04-19 10:29:00,
2013-04-19 06:34:00,54.9,53.5,29.94,SSE,165,2.0,6.0,95,0.00,,,0.00,WeatherCatV1.10B1784,2013-04-19 10:34:00,
2013-04-19 06:39:00,55.1,53.7,29.94,SE,143,0.0,6.0,95,0.00,,,0.00,WeatherCatV1.10B1784,2013-04-19 10:39:00,
2013-04-19 06:44:00,55.3,53.9,29.94,West,262,0.0,3.0,95,0.00,,,0.00,WeatherCatV1.10B1784,2013-04-19 10:44:00,
2013-04-19 06:49:00,55.5,54.1,29.94,SSE,160,4.0,8.0,95,0.00,,,0.00,WeatherCatV1.10B1784,2013-04-19 10:49:00,
2013-04-19 06:54:00,55.8,54.4,29.94,SSE,165,4.0,4.0,95,0.00,,,0.00,WeatherCatV1.10B1784,2013-04-19 10:54:00,
2013-04-19 06:59:00,56.5,55.1,29.94,WSW,257,6.0,7.0,95,0.00,,,0.00,WeatherCatV1.10B1784,2013-04-19 10:59:00,
2013-04-19 07:04:00,57.2,55.8,29.94,WSW,240,0.0,12.0,95,0.00,,,0.00,WeatherCatV1.10B1784,2013-04-19 11:04:00,
2013-04-19 07:09:00,58.0,56.0,29.94,SE,146,4.0,6.0,93,0.00,,,0.00,WeatherCatV1.10B1784,2013-04-19 11:09:00,
2013-04-19 07:14:00,58.4,55.8,29.94,SW,228,0.0,10.0,91,0.00,,,0.00,WeatherCatV1.10B1784,2013-04-19 11:14:00,
2013-04-19 07:19:00,58.9,56.0,29.94,SW,229,4.0,6.0,90,0.00,,,0.00,WeatherCatV1.10B1784,2013-04-19 11:19:00,
2013-04-19 07:24:00,59.1,55.5,29.94,SW,225,5.0,7.0,88,0.00,,,0.00,WeatherCatV1.10B1784,2013-04-19 11:24:00,
2013-04-19 07:29:00,59.4,55.8,29.94,SW,219,4.0,14.0,88,0.00,,,0.00,WeatherCatV1.10B1784,2013-04-19 11:29:00,
2013-04-19 07:34:00,59.6,55.7,29.94,SE,136,6.0,8.0,87,0.00,,,0.00,WeatherCatV1.10B1784,2013-04-19 11:34:00,
2013-04-19 07:39:00,59.9,56.0,29.93,SW,228,9.0,9.0,87,0.00,,,0.00,WeatherCatV1.10B1784,2013-04-19 11:39:00,
2013-04-19 07:44:00,60.2,56.0,29.93,SW,235,9.0,16.0,86,0.00,,,0.00,WeatherCatV1.10B1784,2013-04-19 11:44:00,
2013-04-19 07:49:00,60.5,56.3,29.93,South,177,0.0,3.0,86,0.00,,,0.00,WeatherCatV1.10B1784,2013-04-19 11:49:00,
2013-04-19 07:54:00,61.1,56.2,29.92,SSE,153,4.0,9.0,84,0.00,,,0.00,WeatherCatV1.10B1784,2013-04-19 11:54:00,
2013-04-19 07:59:00,61.4,56.5,29.92,ESE,123,11.0,11.0,84,0.00,,,0.00,WeatherCatV1.10B1784,2013-04-19 11:59:00,
2013-04-19 08:04:00,61.6,56.4,29.92,WSW,257,3.0,9.0,83,0.00,,,0.00,WeatherCatV1.10B1784,2013-04-19 12:04:00,
2013-04-19 08:09:00,61.7,56.5,29.93,WSW,257,3.0,9.0,83,0.00,,,0.00,WeatherCatV1.10B1784,2013-04-19 12:09:00,
2013-04-19 08:14:00,62.0,56.8,29.92,WSW,238,1.0,9.0,83,0.00,,,0.00,WeatherCatV1.10B1784,2013-04-19 12:14:00,
2013-04-19 08:19:00,62.3,56.7,29.93,WSW,238,3.0,5.0,82,0.00,,,0.00,WeatherCatV1.10B1784,2013-04-19 12:19:00,
2013-04-19 08:24:00,62.3,56.7,29.93,SW,234,2.0,12.0,82,0.00,,,0.00,WeatherCatV1.10B1784,2013-04-19 12:24:00,
2013-04-19 08:29:00,62.1,56.9,29.92,South,190,8.0,12.0,83,0.00,,,0.00,WeatherCatV1.10B1784,2013-04-19 12:29:00,
2013-04-19 08:34:00,61.9,56.7,29.93,WNW,292,0.0,6.0,83,0.00,,,0.00,WeatherCatV1.10B1784,2013-04-19 12:34:00,
2013-04-19 08:39:00,62.1,56.9,29.92,SSE,159,4.0,7.0,83,0.00,,,0.00,WeatherCatV1.10B1784,2013-04-19 12:39:00,
2013-04-19 08:44:00,62.5,57.3,29.93,SW,228,3.0,8.0,83,0.00,,,0.00,WeatherCatV1.10B1784,2013-04-19 12:44:00,
2013-04-19 08:49:00,62.7,57.1,29.92,SW,230,1.0,13.0,82,0.00,,,0.00,WeatherCatV1.10B1784,2013-04-19 12:49:00,
2013-04-19 08:54:00,62.6,57.0,29.92,West,267,2.0,9.0,82,0.00,,,0.00,WeatherCatV1.10B1784,2013-04-19 12:54:00,
2013-04-19 08:59:00,62.7,57.1,29.92,SSE,156,0.0,9.0,82,0.00,,,0.00,WeatherCatV1.10B1784,2013-04-19 12:59:00,
2013-04-19 09:04:00,62.9,57.3,29.92,WSW,248,5.0,7.0,82,0.00,,,0.00,WeatherCatV1.10B1784,2013-04-19 13:04:00,
2013-04-19 09:09:00,63.2,57.6,29.92,WSW,243,6.0,6.0,82,0.00,,,0.00,WeatherCatV1.10B1784,2013-04-19 13:09:00,
2013-04-19 09:14:00,63.5,57.6,29.92,South,186,10.0,10.0,81,0.00,,,0.00,WeatherCatV1.10B1784,2013-04-19 13:14:00,
2013-04-19 09:19:00,63.8,57.9,29.91,South,185,4.0,8.0,81,0.00,,,0.00,WeatherCatV1.10B1784,2013-04-19 13:19:00,
2013-04-19 09:24:00,64.2,57.9,29.91,SE,140,8.0,10.0,80,0.00,,,0.00,WeatherCatV1.10B1784,2013-04-19 13:24:00,
2013-04-19 09:29:00,64.2,57.9,29.91,West,277,0.0,11.0,80,0.00,,,0.00,WeatherCatV1.10B1784,2013-04-19 13:29:00,
2013-04-19 09:34:00,64.7,58.4,29.90,WSW,257,4.0,13.0,80,0.00,,,0.00,WeatherCatV1.10B1784,2013-04-19 13:34:00,
2013-04-19 09:39:00,65.1,58.4,29.90,SE,145,6.0,12.0,79,0.00,,,0.00,WeatherCatV1.10B1784,2013-04-19 13:39:00,
2013-04-19 09:44:00,65.6,58.5,29.90,SE,131,6.0,7.0,78,0.00,,,0.00,WeatherCatV1.10B1784,2013-04-19 13:44:00,
2013-04-19 09:49:00,66.1,58.7,29.90,SW,234,3.0,10.0,77,0.00,,,0.00,WeatherCatV1.10B1784,2013-04-19 13:49:00,
2013-04-19 09:54:00,65.6,58.2,29.90,SW,221,7.0,10.0,77,0.00,,,0.00,WeatherCatV1.10B1784,2013-04-19 13:54:00,
2013-04-19 09:59:00,65.4,58.0,29.90,SW,230,3.0,9.0,77,0.00,,,0.00,WeatherCatV1.10B1784,2013-04-19 13:59:00,
2013-04-19 10:04:00,65.4,58.4,29.90,SSE,163,8.0,11.0,78,0.00,,,0.00,WeatherCatV1.10B1784,2013-04-19 14:04:00,
2013-04-19 10:09:00,65.3,58.3,29.90,SE,141,8.0,10.0,78,0.00,,,0.00,WeatherCatV1.10B1784,2013-04-19 14:09:00,
2013-04-19 10:14:00,65.0,58.3,29.90,SSW,195,6.0,12.0,79,0.00,,,0.00,WeatherCatV1.10B1784,2013-04-19 14:14:00,
2013-04-19 10:19:00,64.8,58.1,29.90,SSE,164,2.0,8.0,79,0.00,,,0.00,WeatherCatV1.10B1784,2013-04-19 14:19:00,
2013-04-19 10:24:00,65.1,58.4,29.90,SSW,200,9.0,13.0,79,0.00,,,0.00,WeatherCatV1.10B1784,2013-04-19 14:24:00,
2013-04-19 10:29:00,65.7,59.0,29.89,SSE,150,3.0,5.0,79,0.00,,,0.00,WeatherCatV1.10B1784,2013-04-19 14:29:00,
2013-04-19 10:34:00,66.3,58.9,29.89,South,173,7.0,9.0,77,0.00,,,0.00,WeatherCatV1.10B1784,2013-04-19 14:34:00,
2013-04-19 10:39:00,66.8,59.0,29.89,SW,220,5.0,10.0,76,0.00,,,0.00,WeatherCatV1.10B1784,2013-04-19 14:39:00,
2013-04-19 10:44:00,67.0,58.8,29.89,WSW,244,3.0,14.0,75,0.00,,,0.00,WeatherCatV1.10B1784,2013-04-19 14:44:00,
2013-04-19 10:49:00,67.0,58.8,29.89,WSW,248,7.0,15.0,75,0.00,,,0.00,WeatherCatV1.10B1784,2013-04-19 14:49:00,
2013-04-19 10:54:00,66.7,58.5,29.89,WSW,240,2.0,12.0,75,0.00,,,0.00,WeatherCatV1.10B1784,2013-04-19 14:54:00,
2013-04-19 10:59:00,67.1,59.3,29.88,WSW,250,5.0,18.0,76,0.00,,,0.00,WeatherCatV1.10B1784,2013-04-19 14:59:00,
2013-04-19 11:04:00,67.2,58.6,29.88,SE,132,8.0,23.0,74,0.00,,,0.00,WeatherCatV1.10B1784,2013-04-19 15:04:00,
2013-04-19 11:09:00,67.2,59.0,29.88,South,175,7.0,14.0,75,0.00,,,0.00,WeatherCatV1.10B1784,2013-04-19 15:09:00,
2013-04-19 11:14:00,67.7,59.1,29.87,SSE,150,13.0,14.0,74,0.00,,,0.00,WeatherCatV1.10B1784,2013-04-19 15:14:00,
2013-04-19 11:19:00,68.0,59.4,29.87,SW,223,5.0,14.0,74,0.00,,,0.00,WeatherCatV1.10B1784,2013-04-19 15:19:00,
2013-04-19 11:24:00,68.0,59.0,29.87,WSW,247,1.0,13.0,73,0.00,,,0.00,WeatherCatV1.10B1784,2013-04-19 15:24:00,
2013-04-19 11:29:00,67.4,58.8,29.86,SE,146,7.0,10.0,74,0.00,,,0.00,WeatherCatV1.10B1784,2013-04-19 15:29:00,
2013-04-19 11:34:00,67.0,58.8,29.86,South,169,2.0,14.0,75,0.00,,,0.00,WeatherCatV1.10B1784,2013-04-19 15:34:00,
2013-04-19 11:39:00,67.3,58.7,29.86,SSW,200,1.0,10.0,74,0.00,,,0.00,WeatherCatV1.10B1784,2013-04-19 15:39:00,
2013-04-19 11:44:00,67.8,59.2,29.85,SSE,153,8.0,9.0,74,0.00,,,0.00,WeatherCatV1.10B1784,2013-04-19 15:44:00,
2013-04-19 11:49:00,68.3,59.3,29.85,SSE,154,11.0,24.0,73,0.00,,,0.00,WeatherCatV1.10B1784,2013-04-19 15:49:00,
2013-04-19 11:54:00,68.5,59.1,29.85,SSE,161,7.0,11.0,72,0.00,,,0.00,WeatherCatV1.10B1784,2013-04-19 15:54:00,
2013-04-19 11:59:00,68.8,59.0,29.85,SW,228,3.0,14.0,71,0.00,,,0.00,WeatherCatV1.10B1784,2013-04-19 15:59:00,
2013-04-19 12:04:00,69.2,59.4,29.84,SW,225,2.0,18.0,71,0.00,,,0.00,WeatherCatV1.10B1784,2013-04-19 16:04:00,
2013-04-19 12:09:00,69.4,59.2,29.84,SW,230,3.0,16.0,70,0.00,,,0.00,WeatherCatV1.10B1784,2013-04-19 16:09:00,
2013-04-19 12:14:00,69.2,59.4,29.84,South,186,3.0,11.0,71,0.00,,,0.00,WeatherCatV1.10B1784,2013-04-19 16:14:00,
2013-04-19 12:19:00,69.3,59.5,29.84,SSE,148,4.0,16.0,71,0.00,,,0.00,WeatherCatV1.10B1784,2013-04-19 16:19:00,
2013-04-19 12:24:00,69.6,59.8,29.83,WSW,246,8.0,9.0,71,0.00,,,0.00,WeatherCatV1.10B1784,2013-04-19 16:24:00,
2013-04-19 12:29:00,69.4,59.2,29.83,WSW,257,5.0,8.0,70,0.00,,,0.00,WeatherCatV1.10B1784,2013-04-19 16:29:00,
2013-04-19 12:34:00,70.0,59.8,29.82,SE,132,11.0,16.0,70,0.00,,,0.00,WeatherCatV1.10B1784,2013-04-19 16:34:00,
2013-04-19 12:39:00,71.3,60.2,29.82,SW,218,2.0,11.0,68,0.00,,,0.00,WeatherCatV1.10B1784,2013-04-19 16:39:00,
2013-04-19 12:44:00,72.5,60.0,29.82,SSE,154,2.0,17.0,65,0.00,,,0.00,WeatherCatV1.10B1784,2013-04-19 16:44:00,
2013-04-19 12:49:00,73.0,59.6,29.82,SSE,161,12.0,22.0,63,0.00,,,0.00,WeatherCatV1.10B1784,2013-04-19 16:49:00,
2013-04-19 12:54:00,72.4,59.5,29.82,SSE,157,1.0,11.0,64,0.00,,,0.00,WeatherCatV1.10B1784,2013-04-19 16:54:00,
2013-04-19 12:59:00,72.1,59.2,29.81,SSE,162,5.0,13.0,64,0.00,,,0.00,WeatherCatV1.10B1784,2013-04-19 16:59:00,
2013-04-19 13:04:00,72.2,59.8,29.81,SSE,154,14.0,19.0,65,0.00,,,0.00,WeatherCatV1.10B1784,2013-04-19 17:04:00,
2013-04-19 13:09:00,72.7,60.2,29.81,SE,142,8.0,8.0,65,0.00,,,0.00,WeatherCatV1.10B1784,2013-04-19 17:09:00,
2013-04-19 13:14:00,72.8,59.9,29.80,SSE,167,11.0,17.0,64,0.00,,,0.00,WeatherCatV1.10B1784,2013-04-19 17:14:00,
2013-04-19 13:19:00,73.3,59.9,29.80,South,191,8.0,17.0,63,0.00,,,0.00,WeatherCatV1.10B1784,2013-04-19 17:19:00,
2013-04-19 13:24:00,73.1,59.7,29.80,NNE,26,5.0,18.0,63,0.00,,,0.00,WeatherCatV1.10B1784,2013-04-19 17:24:00,
2013-04-19 13:29:00,72.7,59.4,29.79,SSE,155,5.0,15.0,63,0.00,,,0.00,WeatherCatV1.10B1784,2013-04-19 17:29:00,
2013-04-19 13:34:00,72.2,59.3,29.79,South,173,5.0,15.0,64,0.00,,,0.00,WeatherCatV1.10B1784,2013-04-19 17:34:00,
2013-04-19 13:39:00,71.9,59.0,29.79,South,175,4.0,15.0,64,0.00,,,0.00,WeatherCatV1.10B1784,2013-04-19 17:39:00,
2013-04-19 13:44:00,71.6,59.2,29.79,West,267,9.0,9.0,65,0.00,,,0.00,WeatherCatV1.10B1784,2013-04-19 17:44:00,
2013-04-19 13:49:00,71.7,59.3,29.78,SSW,210,3.0,14.0,65,0.00,,,0.00,WeatherCatV1.10B1784,2013-04-19 17:49:00,
2013-04-19 13:54:00,73.1,60.6,29.77,SSE,149,18.0,18.0,65,0.00,,,0.00,WeatherCatV1.10B1784,2013-04-19 17:54:00,
2013-04-19 13:59:00,74.4,60.5,29.77,South,186,5.0,7.0,62,0.00,,,0.00,WeatherCatV1.10B1784,2013-04-19 17:59:00,
2013-04-19 14:04:00,74.5,59.7,29.77,ESE,117,8.0,18.0,60,0.00,,,0.00,WeatherCatV1.10B1784,2013-04-19 18:04:00,
2013-04-19 14:09:00,73.4,59.6,29.77,West,279,8.0,17.0,62,0.00,,,0.00,WeatherCatV1.10B1784,2013-04-19 18:09:00,
2013-04-19 14:14:00,72.8,59.0,29.77,SSE,165,7.0,11.0,62,0.00,,,0.00,WeatherCatV1.10B1784,2013-04-19 18:14:00,
2013-04-19 14:19:00,72.9,59.5,29.76,SSW,213,5.0,7.0,63,0.00,,,0.00,WeatherCatV1.10B1784,2013-04-19 18:19:00,
2013-04-19 14:24:00,73.0,59.2,29.76,SW,229,3.0,13.0,62,0.00,,,0.00,WeatherCatV1.10B1784,2013-04-19 18:24:00,
2013-04-19 14:29:00,73.4,59.6,29.76,SW,235,6.0,11.0,62,0.00,,,0.00,WeatherCatV1.10B1784,2013-04-19 18:29:00,
2013-04-19 14:34:00,73.4,59.6,29.75,South,169,7.0,11.0,62,0.00,,,0.00,WeatherCatV1.10B1784,2013-04-19 18:34:00,
2013-04-19 14:39:00,74.1,60.2,29.76,SSW,192,8.0,23.0,62,0.00,,,0.00,WeatherCatV1.10B1784,2013-04-19 18:39:00,
2013-04-19 14:44:00,73.6,59.8,29.75,South,172,13.0,22.0,62,0.00,,,0.00,WeatherCatV1.10B1784,2013-04-19 18:44:00,
2013-04-19 14:49:00,73.2,59.8,29.75,SSE,161,9.0,14.0,63,0.00,,,0.00,WeatherCatV1.10B1784,2013-04-19 18:49:00,
2013-04-19 14:54:00,72.7,59.8,29.75,WSW,257,6.0,13.0,64,0.00,,,0.00,WeatherCatV1.10B1784,2013-04-19 18:54:00,
2013-04-19 14:59:00,72.3,59.4,29.75,SW,232,4.0,8.0,64,0.00,,,0.00,WeatherCatV1.10B1784,2013-04-19 18:59:00,
2013-04-19 15:04:00,72.4,60.0,29.74,ESE,113,0.0,6.0,65,0.00,,,0.00,WeatherCatV1.10B1784,2013-04-19 19:04:00,
2013-04-19 15:09:00,72.3,59.9,29.74,SSE,165,9.0,14.0,65,0.00,,,0.00,WeatherCatV1.10B1784,2013-04-19 19:09:00,
2013-04-19 15:14:00,72.0,59.6,29.74,South,190,9.0,17.0,65,0.00,,,0.00,WeatherCatV1.10B1784,2013-04-19 19:14:00,
2013-04-19 15:19:00,72.0,60.0,29.74,WSW,242,1.0,9.0,66,0.00,,,0.00,WeatherCatV1.10B1784,2013-04-19 19:19:00,
2013-04-19 15:24:00,71.9,59.9,29.74,WSW,252,3.0,13.0,66,0.00,,,0.00,WeatherCatV1.10B1784,2013-04-19 19:24:00,
2013-04-19 15:29:00,71.7,60.1,29.74,SSE,166,9.0,18.0,67,0.00,,,0.00,WeatherCatV1.10B1784,2013-04-19 19:29:00,
2013-04-19 15:34:00,71.7,60.1,29.74,SSW,208,5.0,10.0,67,0.00,,,0.00,WeatherCatV1.10B1784,2013-04-19 19:34:00,
2013-04-19 15:39:00,71.4,61.1,29.74,SE,141,15.0,25.0,70,0.00,,,0.00,WeatherCatV1.10B1784,2013-04-19 19:39:00,
2013-04-19 15:44:00,70.9,61.0,29.74,SSE,167,4.0,12.0,71,0.00,,,0.00,WeatherCatV1.10B1784,2013-04-19 19:44:00,
2013-04-19 15:49:00,70.3,61.2,29.74,SSE,147,11.0,12.0,73,0.00,,,0.00,WeatherCatV1.10B1784,2013-04-19 19:49:00,
2013-04-19 15:54:00,69.8,61.5,29.74,SSE,150,7.0,14.0,75,0.00,,,0.00,WeatherCatV1.10B1784,2013-04-19 19:54:00,
2013-04-19 15:59:00,69.0,61.8,29.74,SSE,152,8.0,10.0,78,0.00,,,0.00,WeatherCatV1.10B1784,2013-04-19 19:59:00,
2013-04-19 16:04:00,68.0,62.3,29.74,SE,146,9.0,10.0,82,0.00,,,0.00,WeatherCatV1.10B1784,2013-04-19 20:04:00,
2013-04-19 16:09:00,67.3,62.0,29.73,SSW,211,10.0,10.0,83,0.00,,,0.00,WeatherCatV1.10B1784,2013-04-19 20:09:00,
2013-04-19 16:14:00,66.7,62.0,29.73,South,183,0.0,8.0,85,0.00,,,0.00,WeatherCatV1.10B1784,2013-04-19 20:14:00,
2013-04-19 16:19:00,66.6,61.9,29.72,SSE,158,8.0,8.0,85,0.00,,,0.00,WeatherCatV1.10B1784,2013-04-19 20:19:00,
2013-04-19 16:24:00,66.9,62.2,29.72,South,190,6.0,9.0,85,0.00,,,0.00,WeatherCatV1.10B1784,2013-04-19 20:24:00,
2013-04-19 16:29:00,67.1,61.8,29.72,South,173,8.0,12.0,83,0.00,,,0.00,WeatherCatV1.10B1784,2013-04-19 20:29:00,
2013-04-19 16:34:00,67.3,61.6,29.72,South,175,4.0,12.0,82,0.00,,,0.00,WeatherCatV1.10B1784,2013-04-19 20:34:00,
2013-04-19 16:39:00,67.4,61.7,29.71,SSE,167,12.0,17.0,82,0.00,,,0.00,WeatherCatV1.10B1784,2013-04-19 20:39:00,
2013-04-19 16:44:00,67.4,61.7,29.71,SE,146,9.0,18.0,82,0.00,,,0.00,WeatherCatV1.10B1784,2013-04-19 20:44:00,
2013-04-19 16:49:00,67.5,61.8,29.71,South,171,4.0,19.0,82,0.00,,,0.00,WeatherCatV1.10B1784,2013-04-19 20:49:00,
2013-04-19 16:54:00,67.5,61.5,29.71,SW,235,4.0,12.0,81,0.00,,,0.00,WeatherCatV1.10B1784,2013-04-19 20:54:00,
2013-04-19 16:59:00,67.5,61.8,29.71,SE,142,10.0,16.0,82,0.00,,,0.00,WeatherCatV1.10B1784,2013-04-19 20:59:00,
2013-04-19 17:04:00,67.4,61.4,29.70,SSE,159,3.0,5.0,81,0.00,,,0.00,WeatherCatV1.10B1784,2013-04-19 21:04:00,
2013-04-19 17:09:00,67.3,61.6,29.70,SSE,154,10.0,12.0,82,0.00,,,0.00,WeatherCatV1.10B1784,2013-04-19 21:09:00,
2013-04-19 17:14:00,67.2,61.5,29.70,West,262,6.0,7.0,82,0.00,,,0.00,WeatherCatV1.10B1784,2013-04-19 21:14:00,
2013-04-19 17:19:00,67.2,61.5,29.69,SSE,150,10.0,14.0,82,0.00,,,0.00,WeatherCatV1.10B1784,2013-04-19 21:19:00,
2013-04-19 17:24:00,67.2,61.5,29.69,South,174,6.0,11.0,82,0.00,,,0.00,WeatherCatV1.10B1784,2013-04-19 21:24:00,
2013-04-19 17:29:00,67.2,61.5,29.69,South,183,3.0,9.0,82,0.00,,,0.00,WeatherCatV1.10B1784,2013-04-19 21:29:00,
2013-04-19 17:34:00,67.1,61.4,29.69,South,184,0.0,13.0,82,0.00,,,0.00,WeatherCatV1.10B1784,2013-04-19 21:34:00,
2013-04-19 17:39:00,67.0,61.7,29.68,SSE,150,7.0,14.0,83,0.00,,,0.00,WeatherCatV1.10B1784,2013-04-19 21:39:00,
2013-04-19 17:44:00,66.8,61.5,29.68,SSE,147,7.0,14.0,83,0.00,,,0.00,WeatherCatV1.10B1784,2013-04-19 21:44:00,
2013-04-19 17:49:00,66.7,61.7,29.68,South,180,6.0,9.0,84,0.00,,,0.00,WeatherCatV1.10B1784,2013-04-19 21:49:00,
2013-04-19 17:54:00,66.6,61.6,29.67,SSE,151,9.0,15.0,84,0.00,,,0.00,WeatherCatV1.10B1784,2013-04-19 21:54:00,
2013-04-19 17:59:00,66.4,61.7,29.67,SSE,156,15.0,17.0,85,0.00,,,0.00,WeatherCatV1.10B1784,2013-04-19 21:59:00,
2013-04-19 18:04:00,66.2,61.9,29.67,SSE,164,7.0,13.0,86,0.00,,,0.00,WeatherCatV1.10B1784,2013-04-19 22:04:00,
2013-04-19 18:09:00,66.0,61.7,29.67,SE,142,0.0,7.0,86,0.00,,,0.00,WeatherCatV1.10B1784,2013-04-19 22:09:00,
2013-04-19 18:14:00,65.8,61.5,29.66,South,183,6.0,16.0,86,0.00,,,0.00,WeatherCatV1.10B1784,2013-04-19 22:14:00,
2013-04-19 18:19:00,65.7,61.4,29.67,SSE,160,6.0,12.0,86,0.00,,,0.00,WeatherCatV1.10B1784,2013-04-19 22:19:00,
2013-04-19 18:24:00,65.7,61.4,29.67,SSE,166,8.0,13.0,86,0.00,,,0.00,WeatherCatV1.10B1784,2013-04-19 22:24:00,
2013-04-19 18:29:00,65.7,61.4,29.67,SSE,157,6.0,13.0,86,0.00,,,0.00,WeatherCatV1.10B1784,2013-04-19 22:29:00,
2013-04-19 18:34:00,65.6,61.6,29.67,SSE,161,1.0,11.0,87,0.00,,,0.00,WeatherCatV1.10B1784,2013-04-19 22:34:00,
2013-04-19 18:39:00,65.6,61.3,29.67,ESE,105,4.0,12.0,86,0.00,,,0.00,WeatherCatV1.10B1784,2013-04-19 22:39:00,
2013-04-19 18:44:00,65.6,61.3,29.66,South,180,10.0,11.0,86,0.00,,,0.00,WeatherCatV1.10B1784,2013-04-19 22:44:00,
2013-04-19 18:49:00,65.6,61.3,29.66,SE,139,4.0,10.0,86,0.00,,,0.00,WeatherCatV1.10B1784,2013-04-19 22:49:00,
2013-04-19 18:54:00,65.5,61.5,29.65,West,267,2.0,13.0,87,0.00,,,0.00,WeatherCatV1.10B1784,2013-04-19 22:54:00,
2013-04-19 18:59:00,65.4,61.1,29.66,South,179,10.0,18.0,86,0.00,,,0.00,WeatherCatV1.10B1784,2013-04-19 22:59:00,
2013-04-19 19:04:00,65.3,61.3,29.66,South,171,5.0,16.0,87,0.00,,,0.00,WeatherCatV1.10B1784,2013-04-19 23:04:00,
2013-04-19 19:09:00,65.2,61.2,29.66,SSE,166,8.0,15.0,87,0.00,,,0.00,WeatherCatV1.10B1784,2013-04-19 23:09:00,
2013-04-19 19:14:00,65.2,61.2,29.66,WSW,243,0.0,6.0,87,0.00,,,0.00,WeatherCatV1.10B1784,2013-04-19 23:14:00,
2013-04-19 19:19:00,65.2,61.2,29.66,WSW,244,3.0,6.0,87,0.00,,,0.00,WeatherCatV1.10B1784,2013-04-19 23:19:00,
2013-04-19 19:24:00,65.1,61.1,29.66,SSE,165,8.0,12.0,87,0.00,,,0.00,WeatherCatV1.10B1784,2013-04-19 23:24:00,
2013-04-19 19:29:00,65.1,61.1,29.66,SE,142,12.0,14.0,87,0.00,,,0.00,WeatherCatV1.10B1784,2013-04-19 23:29:00,
2013-04-19 19:34:00,65.0,61.0,29.66,WSW,238,11.0,16.0,87,0.00,,,0.00,WeatherCatV1.10B1784,2013-04-19 23:34:00,
2013-04-19 19:39:00,65.0,60.7,29.66,SSE,155,6.0,11.0,86,0.00,,,0.00,WeatherCatV1.10B1784,2013-04-19 23:39:00,
2013-04-19 19:44:00,65.0,61.0,29.66,South,178,15.0,15.0,87,0.00,,,0.00,WeatherCatV1.10B1784,2013-04-19 23:44:00,
2013-04-19 19:49:00,64.9,60.6,29.67,SSW,205,0.0,14.0,86,0.00,,,0.00,WeatherCatV1.10B1784,2013-04-19 23:49:00,
2013-04-19 19:54:00,65.0,60.7,29.67,SSW,204,7.0,12.0,86,0.00,,,0.00,WeatherCatV1.10B1784,2013-04-19 23:54:00,
2013-04-19 19:59:00,65.0,60.4,29.66,SSE,161,6.0,14.0,85,0.00,,,0.00,WeatherCatV1.10B1784,2013-04-19 23:59:00,
2013-04-19 20:04:00,65.0,60.4,29.66,SSE,158,17.0,21.0,85,0.00,,,0.00,WeatherCatV1.10B1784,2013-04-20 00:04:00,
2013-04-19 20:09:00,65.1,60.5,29.66,SSE,165,13.0,21.0,85,0.00,,,0.00,WeatherCatV1.10B1784,2013-04-20 00:09:00,
2013-04-19 20:14:00,65.0,60.4,29.66,SSW,207,9.0,18.0,85,0.00,,,0.00,WeatherCatV1.10B1784,2013-04-20 00:14:00,
2013-04-19 20:19:00,65.0,60.4,29.66,SW,214,1.0,13.0,85,0.00,,,0.00,WeatherCatV1.10B1784,2013-04-20 00:19:00,
2013-04-19 20:24:00,65.0,60.4,29.66,SSW,208,3.0,13.0,85,0.00,,,0.00,WeatherCatV1.10B1784,2013-04-20 00:24:00,
2013-04-19 20:29:00,65.0,60.4,29.66,SSE,162,1.0,11.0,85,0.00,,,0.00,WeatherCatV1.10B1784,2013-04-20 00:29:00,
2013-04-19 20:34:00,65.1,60.5,29.66,SW,231,0.0,8.0,85,0.00,,,0.00,WeatherCatV1.10B1784,2013-04-20 00:34:00,
2013-04-19 20:39:00,65.0,60.4,29.65,WSW,248,9.0,9.0,85,0.00,,,0.00,WeatherCatV1.10B1784,2013-04-20 00:39:00,
2013-04-19 20:44:00,65.0,60.4,29.65,South,189,10.0,15.0,85,0.00,,,0.00,WeatherCatV1.10B1784,2013-04-20 00:44:00,
2013-04-19 20:50:00,64.9,60.3,29.64,SSW,198,0.0,11.0,85,0.00,,,0.00,WeatherCatV1.10B1784,2013-04-20 00:50:00,
2013-04-19 20:55:00,64.7,60.4,29.64,South,171,7.0,16.0,86,0.00,,,0.00,WeatherCatV1.10B1784,2013-04-20 00:55:00,
2013-04-19 21:00:00,64.6,60.3,29.64,SW,216,10.0,16.0,86,0.00,,,0.00,WeatherCatV1.10B1784,2013-04-20 01:00:00,
2013-04-19 21:05:00,64.4,60.4,29.64,SE,145,2.0,8.0,87,0.00,,,0.00,WeatherCatV1.10B1784,2013-04-20 01:05:00,
2013-04-19 21:10:00,64.3,60.3,29.64,WSW,238,9.0,14.0,87,0.00,,,0.00,WeatherCatV1.10B1784,2013-04-20 01:10:00,
2013-04-19 21:15:00,64.2,60.2,29.64,South,183,8.0,8.0,87,0.00,,,0.00,WeatherCatV1.10B1784,2013-04-20 01:15:00,
2013-04-19 21:20:00,64.1,60.5,29.64,SSW,206,5.0,9.0,88,0.00,,,0.00,WeatherCatV1.10B1784,2013-04-20 01:20:00,
2013-04-19 21:25:00,64.0,60.4,29.65,WSW,242,2.0,19.0,88,0.00,,,0.00,WeatherCatV1.10B1784,2013-04-20 01:25:00,
2013-04-19 21:30:00,64.0,60.4,29.65,SSE,167,7.0,7.0,88,0.00,,,0.00,WeatherCatV1.10B1784,2013-04-20 01:30:00,
2013-04-19 21:35:00,64.0,60.4,29.65,SSE,168,0.0,12.0,88,0.00,,,0.00,WeatherCatV1.10B1784,2013-04-20 01:35:00,
2013-04-19 21:40:00,64.0,60.4,29.64,SSE,161,13.0,13.0,88,0.00,,,0.00,WeatherCatV1.10B1784,2013-04-20 01:40:00,
2013-04-19 21:45:00,63.9,60.3,29.64,SSW,194,5.0,11.0,88,0.00,,,0.00,WeatherCatV1.10B1784,2013-04-20 01:45:00,
2013-04-19 21:50:00,63.9,60.3,29.64,SSE,161,0.0,13.0,88,0.00,,,0.00,WeatherCatV1.10B1784,2013-04-20 01:50:00,
2013-04-19 21:55:00,64.0,60.4,29.63,South,179,9.0,9.0,88,0.00,,,0.00,WeatherCatV1.10B1784,2013-04-20 01:55:00,
2013-04-19 22:00:00,64.0,60.4,29.63,SE,133,4.0,9.0,88,0.00,,,0.00,WeatherCatV1.10B1784,2013-04-20 02:00:00,
2013-04-19 22:05:00,64.1,60.5,29.63,South,183,7.0,14.0,88,0.00,,,0.00,WeatherCatV1.10B1784,2013-04-20 02:05:00,
2013-04-19 22:10:00,64.2,60.6,29.63,SSW,196,1.0,9.0,88,0.00,,,0.00,WeatherCatV1.10B1784,2013-04-20 02:10:00,
2013-04-19 22:11:00,64.2,60.6,29.63,SSE,166,6.0,6.0,88,0.00,,,0.00,WeatherCatV1.10B1784,2013-04-20 02:11:00,
2013-04-19 22:16:00,64.3,60.7,29.63,ESE,113,3.0,9.0,88,0.00,,,0.00,WeatherCatV1.10B1784,2013-04-20 02:16:00,
2013-04-19 22:21:00,64.6,61.0,29.62,SSE,158,2.0,10.0,88,0.00,,,0.00,WeatherCatV1.10B1784,2013-04-20 02:21:00,
2013-04-19 22:26:00,64.7,61.1,29.61,SW,217,4.0,8.0,88,0.00,,,0.00,WeatherCatV1.10B1784,2013-04-20 02:26:00,
2013-04-19 22:31:00,64.8,61.2,29.61,SE,139,4.0,9.0,88,0.00,,,0.00,WeatherCatV1.10B1784,2013-04-20 02:31:00,
2013-04-19 22:36:00,64.8,61.2,29.61,SW,231,8.0,14.0,88,0.00,,,0.00,WeatherCatV1.10B1784,2013-04-20 02:36:00,
2013-04-19 22:41:00,64.9,61.3,29.61,South,180,9.0,10.0,88,0.00,,,0.00,WeatherCatV1.10B1784,2013-04-20 02:41:00,
2013-04-19 22:46:00,65.0,61.4,29.61,South,189,19.0,19.0,88,0.00,,,0.00,WeatherCatV1.10B1784,2013-04-20 02:46:00,
2013-04-19 22:51:00,65.1,61.5,29.61,West,279,9.0,11.0,88,0.00,,,0.00,WeatherCatV1.10B1784,2013-04-20 02:51:00,
2013-04-19 22:54:00,65.2,61.5,29.62,SE,139,7.0,7.0,88,0.00,,,0.00,WeatherCatV1.10B1784,2013-04-20 02:54:00,
2013-04-19 22:59:00,65.3,61.3,29.62,WSW,253,2.0,8.0,87,0.00,,,0.00,WeatherCatV1.10B1784,2013-04-20 02:59:00,
2013-04-19 23:04:00,65.4,61.4,29.61,SSE,159,0.0,13.0,87,0.00,,,0.00,WeatherCatV1.10B1784,2013-04-20 03:04:00,
2013-04-19 23:09:00,65.4,61.4,29.60,SSE,162,4.0,7.0,87,0.00,,,0.00,WeatherCatV1.10B1784,2013-04-20 03:09:00,
2013-04-19 23:14:00,65.5,61.5,29.60,WSW,257,0.0,17.0,87,0.00,,,0.00,WeatherCatV1.10B1784,2013-04-20 03:14:00,
2013-04-19 23:19:00,65.6,61.6,29.59,SSE,163,5.0,13.0,87,0.00,,,0.00,WeatherCatV1.10B1784,2013-04-20 03:19:00,
2013-04-19 23:24:00,65.6,61.6,29.59,West,262,1.0,15.0,87,0.00,,,0.00,WeatherCatV1.10B1784,2013-04-20 03:24:00,
2013-04-19 23:30:00,65.7,61.7,29.58,WSW,257,5.0,20.0,87,0.00,,,0.00,WeatherCatV1.10B1784,2013-04-20 03:30:00,
2013-04-19 23:35:00,65.9,61.9,29.59,SSE,154,9.0,18.0,87,0.00,,,0.00,WeatherCatV1.10B1784,2013-04-20 03:35:00,
2013-04-19 23:40:00,65.9,61.9,29.59,SW,231,4.0,13.0,87,0.00,,,0.00,WeatherCatV1.10B1784,2013-04-20 03:40:00,
2013-04-19 23:45:00,65.9,61.6,29.59,SW,223,5.0,12.0,86,0.00,,,0.00,WeatherCatV1.10B1784,2013-04-20 03:45:00,
2013-04-19 23:50:00,66.0,61.7,29.59,WSW,257,9.0,10.0,86,0.00,,,0.00,WeatherCatV1.10B1784,2013-04-20 03:50:00,
2013-04-19 23:55:00,66.0,61.7,29.59,SSE,155,1.0,10.0,86,0.00,,,0.00,WeatherCatV1.10B1784,2013-04-20 03:55:00,